BEIDOU-3 M9 (C23)

Last updated on Oct. 29, 2020, 5:53 a.m. UTC

1 43581U 18062A   20302.71200954 -.00000054  00000-0  00000+0 0  9992
2 43581  54.5056 252.5556 0005872 274.9463 220.3279  1.86231776 15311
UTC
Height (km)
Latitude
Longitude
Inclination
Orbital Period
UTC large
Height (km)
Speed (km/s)
/
Latitude / Longitude
Inclination (degrees)
Orbital Period (minutes)
Azimuth
Elevation
Range (km)
Doppler Factor
iOS Compass Heading
iOS Angle

Next 30 passes for location: Hong Kong

Rise time Rise Azimuth (degrees) Set time Set Azimuth (degrees) Duration Max altitude (degrees)

No matching passes for this satellites